Regional Weather Roundup
Issued by NWS

Home | Current Version | Previous Version | Graphics & Text | Print | Product List | Glossary On
Versions: 1 2 3 4 5 6 7 8 9 10 11 12 13 14 15 16 17 18 19 20 21 22 23 24 25 26 27 28 29 30 31 32 33 34 35 36 37 38 39 40 41 42 43 44 45 46 47 48 49 50
000
ASUS45 KCYS 200610
RWRWY

WYOMING REGIONAL WEATHER ROUNDUP
NATIONAL WEATHER SERVICE CHEYENNE WY
1100 PM MST FRI DEC 19 2014

NOTE:  "FAIR" INDICATES FEW OR NO CLOUDS BELOW 12,000 FEET
WITH NO SIGNIFICANT WEATHER AND/OR OBSTRUCTIONS TO VISIBILITY.

WYZ001-200700-
YELLOWSTONE NATIONAL PARK

CITY           SKY/WX    TMP DP  RH WIND       PRES   REMARKS
LK YELLOWSTONE   N/A     25  22  88 CALM      30.02F
6HR MIN TEMP:  25; 6HR MAX TEMP:  26; 6HR PCP:  0.01;

W YELLOWSTONE  NOT AVBL

$$
WYZ002>013-054>058-071-098>099-200700-
NORTHERN WYOMING

CITY           SKY/WX    TMP DP  RH WIND       PRES   REMARKS
JACKSON        CLOUDY    30  28  93 CALM      30.05R
CODY           FAIR      36  23  60 W8        29.93R WCI  29
GREYBULL       FAIR      20  16  84 CALM      29.98S
6HR MIN TEMP:  17; 6HR MAX TEMP:  21;

WORLAND        FAIR      15  11  83 S3        29.97R
6HR MIN TEMP:   8; 6HR MAX TEMP:  16;

SHERIDAN       CLOUDY    24  18  77 CALM      29.89R
6HR MIN TEMP:  22; 6HR MAX TEMP:  36;

BUFFALO        CLOUDY    35  18  49 W5        29.89R WCI  31
6HR MIN TEMP:  28; 6HR MAX TEMP:  37;

GILLETTE       FAIR      32  21  64 SW9       29.89R WCI  24
6HR MIN TEMP:  30; 6HR MAX TEMP:  35;

HULETT           N/A    N/A N/A N/A MISG        N/A
NEWCASTLE      FAIR      25  19  80 CALM      29.94S

$$
WYZ014>020-022>026-101>103-200700-
CENTRAL WYOMING

CITY           SKY/WX    TMP DP  RH WIND       PRES   REMARKS
BIG PINEY      FAIR      22  18  85 NE6       30.07R WCI  14
6HR MIN TEMP:  21; 6HR MAX TEMP:  31; 6HR PCP: TRACE;

PINEDALE       CLOUDY    27  23  86 CALM      30.08S
DUBOIS         NOT AVBL
LANDER         FAIR      10   6  84 NE6       29.97R WCI   0
6HR MIN TEMP:   8; 6HR MAX TEMP:  17;

RIVERTON       FAIR       8   4  83 N6        29.99R WCI  -2
6HR MIN TEMP:   8; 6HR MAX TEMP:  13;

CASPER         FAIR      30  21  69 SW21      29.98R WCI  17
6HR MIN TEMP:  29; 6HR MAX TEMP:  32;

DOUGLAS        FAIR      24  18  77 CALM      29.96R
6HR MIN TEMP:  23; 6HR MAX TEMP:  35;


$$
WYZ021-027>030-104>119-200700-
SOUTHERN WYOMING

CITY           SKY/WX    TMP DP  RH WIND       PRES   REMARKS
EVANSTON       CLOUDY    30  21  69 SW16G25   30.10S WCI  19
6HR MIN TEMP:  30; 6HR MAX TEMP:  33;

KEMMERER       CLOUDY    28  27  93 W7        30.09R WCI  21
FORT BRIDGER   CLOUDY    32  24  72 W9        30.12S WCI  24
ROCK SPRINGS   CLOUDY    30  21  69 W8        30.10R WCI  22
6HR MIN TEMP:  27; 6HR MAX TEMP:  31;

DIXON          CLOUDY    24  19  83 CALM      30.16S
RAWLINS        MOCLDY    30  20  66 SW18      30.06R WCI  18
6HR MIN TEMP:  25; 6HR MAX TEMP:  30;

SARATOGA       CLOUDY    27  19  74 S7        30.10R WCI  19
LARAMIE        FAIR      22  13  68 SW5       30.02R WCI  16
6HR MIN TEMP:  20; 6HR MAX TEMP:  27;

CHEYENNE       FAIR      31  15  52 W8        29.98S WCI  23
6HR MIN TEMP:  29; 6HR MAX TEMP:  34;

TORRINGTON     FAIR     N/A N/A N/A CALM      29.96S
PINE BLUFFS    FAIR      23  18  80 SW3       30.01S

$$



USA.gov is the U.S. government's official web portal to all federal, state and local government web resources and services.